Weather History for KRAP - February, 2013

Change the Weather History Date:

Sunday, February 10, 2013

  Actual Average Record
Temperature  
Mean Temperature 25 °F 26 °F  
Max Temperature 30 °F 39 °F 74 °F (1951)
Min Temperature 19 °F 14 °F -14 °F (1981)
Degree Days  
Heating Degree Days 40 39  
Month to date heating degree days 312 391  
Since 1 July heating degree days 4305 4547  
Cooling Degree Days 0 0  
Month to date cooling degree days 0 0  
Year to date cooling degree days 0 0  
Moisture  
Dew Point 20 °F    
Average Humidity 74    
Maximum Humidity 85    
Minimum Humidity 63    
Precipitation  
Precipitation 0.06 in 0.01 in 0.22 in (1993)
Month to date precipitation 0.06 0.11  
Year to date precipitation 0.49 0.41  
Snow  
Snow 1.90 in 0.10 in 2.00 in (1953)
Month to date snowfall 1.9 1.6  
Since 1 July snowfall 18.5 19.2  
Snow Depth 0.00 in    
Sea Level Pressure  
Sea Level Pressure 29.81 in    
Wind  
Wind Speed 29 mph (NNW)    
Max Wind Speed 41 mph    
Max Gust Speed 49 mph    
Visibility 6 miles    
Events Fog , Snow    
T = Trace of Precipitation, MM = Missing Value Source: NWS Daily Summary

Daily Weather History Graph

Daily Weather History Graph

Search for Another Location

Airport or City:

Trip Planner

Search our weather history database for the weather conditions in past years. The results will help you decide how hot, cold, wet, or windy it might be!

Date:

Astronomy

Feb. 10, 2013 Rise Set
Actual Time 6:58 AM MST 5:15 PM MST
Civil Twilight 6:28 AM MST 5:45 PM MST
Nautical Twilight 5:54 AM MST 6:19 PM MST
Astronomical Twilight 5:20 AM MST 6:53 PM MST
Moon 6:46 AM MST (2/10) 6:12 PM MST (2/10)
Length of Visible Light 11h 17m
Length of Day
10h 17m
New Moon, 0% of the Moon is Illuminated
Feb 10
New Moon
Feb 17
First Quarter
Feb 25
Full
Mar 4
Last Quarter
Mar 11
New

Hourly Weather History & Observations

Time (MST) Temp. Windchill Dew Point Humidity Pressure Visibility Wind Dir Wind Speed Gust Speed Precip Events Conditions
12:52 AM 28.9 °F 15.4 °F 19.9 °F 69% 29.72 in 10.0 mi NNW 21.9 mph 29.9 mph N/A   Overcast
1:52 AM 28.0 °F 12.3 °F 21.0 °F 75% 29.72 in 10.0 mi NNW 29.9 mph 38.0 mph N/A   Overcast
2:26 AM 28.4 °F 12.5 °F 21.2 °F 74% 29.63 in 1.8 mi NNW 31.1 mph 39.1 mph 0.00 in Snow Light Snow
2:32 AM 28.4 °F 13.3 °F 19.4 °F 69% 29.63 in 3.0 mi NNW 27.6 mph 39.1 mph 0.00 in Snow Light Snow
2:52 AM 30.0 °F 17.2 °F 19.0 °F 64% 29.69 in 10.0 mi NNW 20.7 mph 29.9 mph 0.00 in   Overcast
3:52 AM 30.0 °F 15.2 °F 21.0 °F 69% 29.69 in 10.0 mi NNW 28.8 mph 38.0 mph N/A   Overcast
4:52 AM 30.0 °F 16.0 °F 21.0 °F 69% 29.70 in 10.0 mi NNW 25.3 mph 32.2 mph N/A   Overcast
5:52 AM 28.9 °F 14.3 °F 23.0 °F 78% 29.71 in 10.0 mi NNW 26.5 mph 36.8 mph N/A   Overcast
6:38 AM 28.4 °F 13.0 °F 24.8 °F 86% 29.64 in 3.0 mi NNW 28.8 mph 36.8 mph 0.00 in Snow Light Snow
6:46 AM 28.4 °F 13.5 °F 24.8 °F 86% 29.64 in 3.0 mi NNW 26.5 mph 35.7 mph 0.00 in Snow Light Snow
6:47 AM 28.0 °F 13.0 °F 24.1 °F 85% 29.74 in 3.0 mi NNW 26.5 mph 35.7 mph 0.00 in Snow Light Snow
6:54 AM 28.4 °F 13.0 °F 24.8 °F 86% 29.64 in 2.0 mi NNW 28.8 mph 38.0 mph 0.00 in Snow Light Snow
7:05 AM 28.4 °F 13.0 °F 24.8 °F 86% 29.65 in 1.8 mi NNW 28.8 mph 39.1 mph 0.00 in Snow Light Snow
7:27 AM 28.4 °F 13.0 °F 24.8 °F 86% 29.65 in 0.5 mi NNW 28.8 mph 39.1 mph 0.00 in Fog , Snow Snow
7:52 AM 28.9 °F 13.2 °F 25.0 °F 85% 29.75 in 0.8 mi NNW 31.1 mph 42.6 mph 0.00 in Snow Light Snow
8:04 AM 28.4 °F 12.5 °F 24.8 °F 86% 29.66 in 0.8 mi NNW 31.1 mph 40.3 mph 0.00 in Snow Light Snow
8:15 AM 28.4 °F 13.0 °F 26.6 °F 93% 29.67 in 0.8 mi NNW 28.8 mph 41.4 mph 0.02 in Snow Light Snow
8:52 AM 28.0 °F 11.5 °F 25.0 °F 88% 29.78 in 0.5 mi NNW 33.4 mph 40.3 mph 0.03 in Fog , Snow Snow
9:18 AM 28.4 °F 12.0 °F 24.8 °F 86% 29.69 in 0.5 mi NNW 33.4 mph 42.6 mph 0.01 in Fog , Snow Snow
9:30 AM 28.4 °F 11.6 °F 24.8 °F 86% 29.70 in 0.5 mi NNW 35.7 mph 42.6 mph 0.01 in Fog , Snow Light Snow
9:32 AM 28.4 °F 11.6 °F 24.8 °F 86% 29.70 in 0.5 mi NNW 35.7 mph 42.6 mph 0.01 in Fog , Snow Light Snow
9:52 AM 28.9 °F 12.5 °F 23.0 °F 78% 29.80 in 1.2 mi NNW 34.5 mph 42.6 mph 0.01 in Snow Light Snow
10:42 AM 28.4 °F 11.0 °F 24.8 °F 86% 29.73 in 3.0 mi NNW 39.1 mph 46.0 mph 0.02 in Snow Light Snow
10:52 AM 28.9 °F 12.8 °F 24.1 °F 82% 29.82 in 9.0 mi NNW 33.4 mph 47.2 mph 0.02 in Snow Light Snow
11:06 AM 28.4 °F 11.2 °F 21.2 °F 74% 29.73 in 7.0 mi NNW 38.0 mph 49.5 mph 0.00 in Snow Light Snow
11:44 AM 28.4 °F 12.0 °F 19.4 °F 69% 29.74 in 9.0 mi NNW 33.4 mph 44.9 mph 0.00 in Snow Light Snow
11:52 AM 28.0 °F 11.5 °F 19.0 °F 69% 29.84 in 6.0 mi NNW 33.4 mph 47.2 mph 0.00 in Snow Light Snow
12:52 PM 28.9 °F 13.5 °F 19.9 °F 69% 29.84 in 9.0 mi NNW 29.9 mph 44.9 mph 0.00 in Snow Light Snow
1:52 PM 28.9 °F 14.0 °F 19.9 °F 69% 29.84 in 10.0 mi NNW 27.6 mph 46.0 mph 0.00 in   Overcast
2:32 PM 28.4 °F 12.5 °F 23.0 °F 80% 29.77 in 1.8 mi NNW 31.1 mph 40.3 mph 0.00 in Snow Light Snow
2:52 PM 28.0 °F 11.5 °F 21.9 °F 78% 29.88 in 1.5 mi NNW 33.4 mph 46.0 mph 0.00 in Snow Light Snow
2:59 PM 26.6 °F 9.3 °F 23.0 °F 86% 29.80 in 0.2 mi NNW 34.5 mph 46.0 mph 0.00 in Fog , Snow Heavy Snow
3:03 PM 26.6 °F 10.3 °F 21.2 °F 80% 29.79 in 0.5 mi NNW 29.9 mph 44.9 mph 0.00 in Snow Snow
3:08 PM 28.4 °F 13.5 °F 21.2 °F 74% 29.79 in 2.0 mi NNW 26.5 mph 40.3 mph 0.00 in Snow Light Snow
3:11 PM 28.4 °F 13.0 °F 21.2 °F 74% 29.80 in 7.0 mi NNW 28.8 mph 40.3 mph 0.00 in   Overcast
3:18 PM 28.4 °F 12.0 °F 21.2 °F 74% 29.80 in 2.5 mi NNW 33.4 mph 41.4 mph 0.00 in Snow Light Snow
3:29 PM 28.4 °F 13.0 °F 21.2 °F 74% 29.80 in 9.0 mi NNW 28.8 mph 39.1 mph 0.00 in   Overcast
3:52 PM 28.9 °F 12.8 °F 19.0 °F 67% 29.91 in 10.0 mi NNW 33.4 mph 42.6 mph 0.00 in   Overcast
4:52 PM 26.1 °F 8.4 °F 19.0 °F 75% 29.96 in 10.0 mi NNW 35.7 mph 46.0 mph 0.00 in   Overcast
5:52 PM 25.0 °F 7.3 °F 16.0 °F 69% 29.99 in 10.0 mi NNW 33.4 mph 44.9 mph N/A   Overcast
6:52 PM 23.0 °F 4.9 °F 15.1 °F 72% 30.01 in 10.0 mi NNW 32.2 mph 40.3 mph N/A   Clear
7:52 PM 21.9 °F 3.9 °F 14.0 °F 72% 30.03 in 10.0 mi NNW 29.9 mph 40.3 mph N/A   Clear
8:52 PM 19.9 °F 2.5 °F 12.0 °F 71% 30.09 in 10.0 mi NNW 25.3 mph 34.5 mph N/A   Mostly Cloudy
9:52 PM 19.0 °F 4.0 °F 12.0 °F 74% 30.10 in 10.0 mi NNW 17.3 mph - N/A   Partly Cloudy
10:06 PM 19.4 °F 4.5 °F 12.2 °F 74% 29.98 in 10.0 mi NNW 17.3 mph - N/A   Mostly Cloudy
10:14 PM 19.4 °F 5.0 °F 10.4 °F 68% 29.98 in 10.0 mi NNW 16.1 mph - N/A   Scattered Clouds
10:52 PM 19.9 °F 3.2 °F 10.9 °F 68% 30.10 in 10.0 mi NW 23.0 mph 28.8 mph N/A   Clear
11:52 PM 19.0 °F 3.2 °F 9.0 °F 65% 30.12 in 10.0 mi NNW 19.6 mph - N/A   Clear